TimeMDT,TemperatureF,Dew PointF,Humidity,Sea Level PressureIn,VisibilityMPH,Wind Direction,Wind SpeedMPH,Gust SpeedMPH,PrecipitationIn,Events,Conditions,WindDirDegrees,DateUTC
12:10 AM,28.4,24.8,86,30.34,7.0,North,5.8,-,N/A,,Overcast,10,2012-10-26 06:10:00
12:53 AM,26.1,23.0,88,30.45,7.0,Calm,Calm,-,N/A,,Scattered Clouds,0,2012-10-26 06:53:00
1:04 AM,26.6,23.0,86,30.35,7.0,Calm,Calm,-,N/A,,Mostly Cloudy,0,2012-10-26 07:04:00
1:26 AM,26.6,21.2,80,30.34,6.0,Calm,Calm,-,N/A,,Scattered Clouds,0,2012-10-26 07:26:00
1:53 AM,27.0,24.1,89,30.43,6.0,NNE,5.8,-,N/A,,Partly Cloudy,30,2012-10-26 07:53:00
2:53 AM,28.0,25.0,88,30.44,7.0,North,3.5,-,N/A,,Overcast,350,2012-10-26 08:53:00
3:38 AM,28.4,24.8,86,30.36,6.0,NNW,4.6,-,N/A,,Overcast,330,2012-10-26 09:38:00
3:53 AM,28.9,25.0,85,30.44,8.0,North,8.1,-,N/A,,Overcast,350,2012-10-26 09:53:00
4:29 AM,28.4,24.8,86,30.36,8.0,North,6.9,-,N/A,,Overcast,360,2012-10-26 10:29:00
4:53 AM,28.0,24.1,85,30.46,8.0,North,9.2,-,N/A,,Overcast,360,2012-10-26 10:53:00
5:53 AM,27.0,23.0,85,30.51,10.0,NNW,6.9,-,N/A,,Overcast,340,2012-10-26 11:53:00
6:53 AM,27.0,23.0,85,30.53,10.0,NNW,6.9,-,N/A,,Overcast,340,2012-10-26 12:53:00
7:40 AM,26.6,23.0,86,30.42,4.0,NNW,6.9,-,0.00,Snow,Light Snow,330,2012-10-26 13:40:00
7:53 AM,26.1,21.9,84,30.57,6.0,NNW,10.4,-,0.00,,Overcast,340,2012-10-26 13:53:00
8:53 AM,27.0,23.0,85,30.58,7.0,NW,4.6,-,N/A,,Overcast,310,2012-10-26 14:53:00
9:53 AM,28.0,23.0,81,30.57,4.0,North,6.9,-,0.00,Snow,Light Snow,350,2012-10-26 15:53:00
10:53 AM,28.0,23.0,81,30.57,9.0,NW,3.5,-,0.00,,Overcast,320,2012-10-26 16:53:00
11:53 AM,28.0,24.1,85,30.57,9.0,Calm,Calm,-,N/A,,Overcast,0,2012-10-26 17:53:00
12:53 PM,30.0,25.0,82,30.54,8.0,SSW,4.6,-,N/A,,Overcast,210,2012-10-26 18:53:00
1:53 PM,32.0,26.1,79,30.48,8.0,SSW,8.1,-,N/A,,Overcast,210,2012-10-26 19:53:00
2:10 PM,33.8,26.6,75,30.38,10.0,SW,11.5,-,N/A,,Overcast,230,2012-10-26 20:10:00
2:53 PM,34.0,27.0,75,30.44,10.0,SW,12.7,-,N/A,,Overcast,230,2012-10-26 20:53:00
3:36 PM,35.6,24.8,65,30.34,10.0,SW,12.7,-,N/A,,Scattered Clouds,230,2012-10-26 21:36:00
3:53 PM,34.0,25.0,70,30.42,10.0,SW,12.7,-,N/A,,Clear,220,2012-10-26 21:53:00
4:53 PM,34.0,26.1,73,30.40,10.0,SW,10.4,-,N/A,,Clear,220,2012-10-26 22:53:00
5:53 PM,30.0,25.0,82,30.41,10.0,SSW,8.1,-,N/A,,Clear,210,2012-10-26 23:53:00
6:53 PM,26.1,23.0,88,30.41,7.0,SSW,6.9,-,N/A,,Clear,200,2012-10-27 00:53:00
7:53 PM,26.1,21.9,84,30.41,7.0,SSW,5.8,-,N/A,,Clear,200,2012-10-27 01:53:00
8:53 PM,26.1,23.0,88,30.38,7.0,SW,10.4,-,N/A,,Clear,220,2012-10-27 02:53:00
9:53 PM,26.1,23.0,88,30.37,7.0,South,6.9,-,N/A,,Clear,190,2012-10-27 03:53:00
10:53 PM,28.0,24.1,85,30.34,10.0,SSW,12.7,-,N/A,,Clear,210,2012-10-27 04:53:00
11:53 PM,26.1,23.0,88,30.32,10.0,SSW,9.2,-,N/A,,Clear,210,2012-10-27 05:53:00